STARLINK-1221, 45227

Orbit data source: Space-Track

STARLINK-1221, 45227 is a payload satellite owned by SpaceX/Seattle (US) in LEO that was launched on Mon, 17 Feb 2020 UTC via an FALCON 9 launch vehicle from the Air Force Eastern Test Range (AFETR). Payload-class satellites include a variety of spacecraft equipped with specific instruments for various scientific and technological missions. These include communications satellites like Starlink; space stations such as the ISS; scientific satellites like the Hubble; Earth observation satellites from companies like Planet Labs, Umbra, and HawkEye 360; GPS; miniature CubeSats for education and research; and military/defense satellites.

Loading next visibility...
Identifier
45227, 2020-012BB
Orbit
LEO
Country
Flag of USUS
Related business
Manufacturer
SpaceX/Seattle
Mission
Partially operational Commercial Communications
Bus & Motor
STARLINK, Unknown motor
Mass
260 kg wet, ~248 kg dry
Launch date (UTC)
2020-02-17 (6 years ago)
Launch vehicle
FALCON 9
Launch site
Air Force Eastern Test Range (AFETR)
Object type
Payload
Rocket body
Debris
Shape & HBR
Box + 1 Pan, 10.1 m
Radar Cross Section
13.562 m², Large (>1 m²)

Expand to show TLE details & history
Last TLE update: 15 hours ago

TLE from 15 hours ago
0 STARLINK-1221
1 45227U 20012BB  26169.65664667  .00011278  00000-0  24277-3 0  9999
2 45227  53.0639 149.9374 0003225   1.7929 358.3088 15.45145052352305
Epoch: 2026-06-18T15:45Z
TLE epoch observation values (Epoch: 2026-06-18T15:45:34.272Z)
Latitude
-0.00001°
Longitude
6.64775°
Altitude
429.652 km
Speed
7.656 km/s
True Right ascension
09h 59m 44s
True Declination
0° 00' 00"
Sunlit
Object was in daylight at epoch
Visualization orbit readout
Latitude
Unknown
Longitude
Unknown
Altitude
Unknown
Speed
Unknown
Apparent Right ascension
Unknown
Apparent Declination
Unknown
Sunlit
N/A
Visualization observer readout
Local Sidereal Time
17:58:52
Azimuth
Unknown
Elevation
Unknown
Doppler factor
Unknown
Orbital elements
Apogee altitude
433.422 km
Perigee altitude
429.03 km
Semi-major axis
6,809.363 km
Eccentricity
0.00032
Inclination
53.0639°
RAAN
149.9374°
Arg. of periapsis
1.7929°
True anomaly
358.30771°
Mean anomaly
358.3088°
Eccentric anomaly
358.30825°
Mean motion
3.86263 °/min
Orbital period
93.2 mins
BSTAR
0.00024277
Loading maneuver chart data...
Computing Atmospheric mass density...

Documentation

Showing up to 5 results
|